SITRO-AIS 5 (KATYS)

Last updated on Sun Jan 18 2026 00:03:47 GMT+0000 (Coordinated Universal Time)

1 57176U 23091L 26017.60880249 .00012374 00000+0 49105-3 0 9992 2 57176 97.5293 80.3308 0011030 274.0952 85.9025 15.25446357141354
UTC large
Height (km)
Speed (km/s)
/
Latitude / Longitude
Inclination (degrees)
Orbital Period (minutes)
Azimuth
Elevation
Range (km)
Doppler Factor

Next 0 passes for location: London (51.5072 / 0.1276)

Sorry there are no passes over London.